Kendall-Tamiami Executive Airport Miami US
ICAO: KTMB
IATA: KTB
Category: Medium
Scheduled Services: No

Elevation: 8 ft
TransAlt. 18000 ft.

Airport Communications:
MIAMI APP/DEP:125.5
ATIS:124
CLNC DEL:133
CTAF:118.9
GND:121.7
MIAMI RDO:122.2
TWR:118.9

KTMB Zoom In..

If you have problems with the map follow the link
https://www.worldairports.se/pages/airport.php?
ICAO=KTMB

Runways:

(A) RW 09L length 5003 ft width 150 ft
---- / hdg 93

(B) RW 09R length 5999 ft width 150 ft
ILS 108.70 / hdg 93

(C) RW 13 length 4001 ft width 150 ft
---- / hdg 133

(D) RW 27L length 5999 ft width 150 ft
---- / hdg 273

(E) RW 27R length 5003 ft width 150 ft
---- / hdg 273

(F) RW 31 length 4001 ft width 150 ft
---- / hdg 313

Location; KTMB
Day. 08 / Time. 17.53 Zulu
* Altimeter: 30.11
* Temperature: 27° c. 80.6°f.
* Wind from: KTM° Speed B kn.
Dewpoint: 19° c.
Visibility: 10 Statute Miles.
Clouds: Scattered 3700 ft.

KTMB 081753Z 11009G17KT 10SM SCT037 27/19 A3011 RMK AO2 SLP194 T02670189 10278 20161 58022


Wind From KTM°
Speed B kn.

 
 
jpsmedia worldairports.se 2019   terms of use